Home > Time Zones > World Clock > Weather > France > Lyon > Past weeks

Flag for France Weather past 2 weeks in Lyon, France

Now
57 °F

Mostly cloudy.


Feels Like: 57 °F
Forecast: 52 / 59 °F
Wind: 2 mph from Southeast

Location: Lyon / Bron

Current Time: Mar 29, 2015 at 7:32:56 PM

Latest Report: Mar 29, 2015 at 7:00 PM


Visibility: N/A

Pressure: 30.01 "Hg

Humidity: 77%

Dew point: 50 °F

Location of LyonLocation

Historic Weather in Lyon — Graph

°F

Lyon temperature yesterday

Maximum temperature yesterday: 55 °F (at 2:30 PM)
Minimum temperature yesterday: 34 °F (at 6:30 AM)
Average temperature yesterday: 46 °F

Past Weeks' High & Low Weather Summary

 TemperatureHumidityPressure
High66 °F (Mar 18, 2:30 PM)100% (Mar 23, 7:30 AM)30.27 "Hg (Mar 23, 7:30 AM)
Low34 °F (Mar 23, 5:00 AM)36% (Mar 17, 2:30 PM)29.65 "Hg (Mar 24, 5:00 PM)
Average49 °F71%30.05 "Hg
* Reported Mar 14 5:00 PM — Mar 29 6:30 PM, Lyon, Weather by CustomWeather, © 2015

Note: Actual official high and low records may vary slightly from our data, if they occured in-between our weather recording intervals... More about our weather records

Advertising

Lyon weather history for previous 24 hours

 ConditionsComfort  
Time TempWeatherWind HumidityBarometerVisibility
6:30 PM
Sun, Mar 29
57 °FLight rain. Mostly cloudy.5 mph72%30.01 "HgN/A
6:00 PM57 °FLight rain. Overcast.7 mph72%30.01 "HgN/A
5:30 PM59 °FMostly cloudy.7 mph63%30.04 "HgN/A
5:00 PM59 °FOvercast.5 mph63%30.04 "HgN/A
4:30 PM59 °FOvercast.6 mph63%30.04 "HgN/A
4:00 PM57 °FOvercast.5 mph67%30.04 "HgN/A
3:30 PM57 °FOvercast.2 mph67%30.07 "HgN/A
3:00 PM57 °FOvercast.2 mph67%30.07 "HgN/A
2:30 PM57 °FCloudy.7 mph67%30.07 "HgN/A
2:00 PM57 °FLight rain. Cloudy.5 mph72%30.07 "HgN/A
1:30 PM57 °FLight rain. Partly sunny.6 mph67%30.09 "HgN/A
1:00 PM59 °FLight rain. Mostly cloudy.5 mph63%30.07 "HgN/A
12:30 PM57 °FMostly cloudy.3 mph63%30.09 "HgN/A
12:00 PM55 °FOvercast.5 mph72%30.09 "HgN/A
11:30 AM55 °FOvercast.3 mph72%30.09 "HgN/A
11:00 AM54 °FMostly cloudy.5 mph77%30.09 "HgN/A
10:30 AM54 °FOvercast.5 mph77%30.09 "HgN/A
10:00 AM52 °FOvercast.2 mph77%30.12 "HgN/A
9:30 AM50 °FOvercast.2 mph88%30.12 "HgN/A
9:00 AM48 °FOvercast.3 mph94%30.12 "HgN/A
8:30 AM48 °FOvercast.2 mph87%30.12 "Hg5 mi
8:00 AM46 °FOvercast.No wind93%30.12 "Hg4 mi
7:30 AM46 °FOvercast.No wind93%30.12 "Hg4 mi
7:00 AM46 °FMostly cloudy.3 mph93%30.12 "Hg6 mi
6:30 AM46 °FOvercast.5 mph93%30.12 "Hg4 mi
6:00 AM46 °FFog.3 mph93%30.12 "Hg3 mi
5:30 AM46 °FOvercast.2 mph93%30.12 "Hg5 mi
5:00 AM46 °FMostly cloudy.3 mph93%30.15 "Hg4 mi
4:30 AM46 °FFog.No wind93%30.15 "Hg3 mi
4:00 AM46 °FFog.No wind93%30.18 "Hg3 mi
3:30 AM46 °FOvercast.3 mph93%30.15 "Hg4 mi
3:00 AM45 °FFog.6 mph93%30.15 "Hg2 mi
1:30 AM45 °FFog.3 mph93%30.18 "Hg2 mi
1:00 AM45 °FFog.No wind93%30.18 "Hg2 mi
12:30 AM45 °FLight fog.1 mph93%30.18 "Hg3 mi
12:00 AM45 °FFog.No wind93%30.18 "Hg0 mi
11:30 PM
Sat, Mar 28
45 °FClear.2 mph93%30.15 "Hg4 mi
11:00 PM46 °FClear.3 mph93%30.18 "Hg5 mi
10:30 PM48 °FPassing clouds.5 mph87%30.18 "Hg4 mi
10:00 PM48 °FPassing clouds.2 mph87%30.18 "HgN/A
9:30 PM50 °FOvercast.2 mph82%30.21 "HgN/A
9:00 PM50 °FMostly cloudy.1 mph88%30.21 "HgN/A
8:30 PM50 °FLight rain. Partly cloudy.3 mph82%30.21 "HgN/A
8:00 PM52 °FMostly cloudy.3 mph77%30.21 "HgN/A
7:30 PM52 °FOvercast.5 mph77%30.18 "HgN/A
7:00 PM52 °FMore clouds than sun.7 mph77%30.18 "HgN/A
Weather by CustomWeather, © 2015

See weather overviewHow to use our weather pages